Miscellaneous Local Product
Issued by NWS North Platte, NE

Home | Current Version | Previous Version | Text Only | Print | Product List | Glossary On
Versions: 1 2 3 4 5 6 7 8 9 10 11 12 13 14 15 16 17 18 19 20 21 22 23 24 25 26 27 28 29 30 31 32 33 34 35 36 37 38 39 40 41 42 43 44 45 46 47 48 49 50
000
AXUS43 KLBF 290010
MISLBF


WESTERN AND NORTH CENTRAL NEBRASKA HOURLY WEATHER ROUNDUP
NATIONAL WEATHER SERVICE NORTH PLATTE NE
700 PM CDT WED SEP 28 2016

NOTE: "FAIR" INDICATES FEW OR NO CLOUDS BELOW 12,000 FEET WITH NO
SIGNIFICANT WEATHER AND/OR OBSTRUCTIONS TO VISIBILITY.

NOTE: STATIONS NOT REPORTING VARIABLES SUCH AS SKY/WEATHER OR
PRESSURE ARE PROVIDED BY RAWS AND APRS NETWORKS AND ARE NOT UNDER
NATIONAL WEATHER SERVICE QUALITY CONTROL.

...OBSERVATIONS IN AND NEAR THE EASTERN PANHANDLE OF NEBRASKA...

CITY           SKY/WX    TMP DP  RH WIND       PRES   REMARKS
PINE RIDGE     CLEAR     75  44  33 E15G21    30.26R
CHADRON        CLEAR     78  42  27 NE9       30.24S
ALLIANCE       CLEAR     76  41  28 E6        30.26S
SIDNEY         CLEAR     75  35  23 E8        30.31R
$$

...OBSERVATIONS IN NORTHERN NEBRASKA AND FAR SOUTHERN SOUTH DAKOTA...

CITY           SKY/WX    TMP DP  RH WIND       PRES   REMARKS
WINNER         FAIR      64  46  52 E7        30.30R
VALENTINE      CLEAR     66  28  24 E8        30.30R
THEDFORD       CLEAR     69  36  29 E5        30.29R
AINSWORTH      CLEAR     64  47  55 NE7       30.30R
O`NEILL        CLEAR     61  42  49 NE5       30.31R
ORD            CLEAR     64  40  41 NE7       30.27R
BROKEN BOW     CLEAR     67  43  41 NE7       30.27R
$$

...OBSERVATIONS IN SOUTHWEST NEBRASKA AND FAR NORTHEAST COLORADO...

CITY           SKY/WX    TMP DP  RH WIND       PRES   REMARKS
WRAY           FAIR      81  34  18 E8        30.26
HOLYOKE        FAIR      79  37  22 E8        30.28R
IMPERIAL       CLEAR     75  37  25 E9        30.26R
OGALLALA       CLEAR    N/A N/A N/A E10       30.27R HAZE
NORTH PLATTE   CLEAR     72  39  30 NE9       30.26R
MCCOOK         CLEAR     73  41  31 NE13      30.24R
LEXINGTON      HAZE      65  35  32 E9        30.26R VSB<1/4
GOTHENBURG       N/A     75  31  20 NE5         N/A
CALLAWAY         N/A     73  31  21 NE9         N/A
$$

...OBSERVATIONS IN CENTRAL LINCOLN COUNTY AREA...

CITY           SKY/WX    TMP DP  RH WIND       PRES   REMARKS
N.P. AIRPORT   CLEAR     72  39  30 NE9       30.26R
$$

...SOME OBSERVATIONS FROM AROUND THE REGION...

CITY           SKY/WX    TMP DP  RH WIND       PRES   REMARKS
DENVER         PTCLDY    78  30  17 E15       30.28S
LARAMIE        CLEAR     67  30  25 SE15G26   30.38R
CHEYENNE       CLEAR     72  34  24 SE10      30.35S
SCOTTSBLUFF    CLEAR     77  42  28 E6        30.27R
RAPID CITY     CLEAR     73  45  36 E8        30.28R
BISMARCK       CLEAR     62  47  57 E10       30.32R
PIERRE         CLEAR     66  44  45 E8        30.28R
SIOUX FALLS    PTCLDY    58  46  64 E12       30.31R
OMAHA          PTCLDY    61  46  57 N8        30.26R
GRAND ISLAND   CLEAR     63  42  46 NE9       30.27R
KANSAS CITY    PTCLDY    60  47  61 N9        30.20R
WICHITA        PTCLDY    69  47  45 NE15      30.17R
OKLAHOMA CITY  PTCLDY    79  48  33 N15       30.10R
DALLAS         PTCLDY    87  50  27 W6        30.02S
AMARILLO       CLEAR     80  38  22 E10       30.21R
DODGE CITY     CLEAR     74  44  34 NE9       30.22R
HAYS           CLEAR     70  36  28 NE9       30.23R
GOODLAND       CLEAR     76  42  29 E10       30.26R
$$




USA.gov is the U.S. government's official web portal to all federal, state and local government web resources and services.